Tracking 20942 objects as of 13-Jul-2020
HD Live streaming from Space Station
objects crossing your sky now

SL-8 DEB

Track SL-8 DEB now!
10-day predictions


NORAD ID: 5778
Int'l Code: 1971-114C
Perigee: 657.2 km
Apogee: 669.3 km
Inclination: 74.0 °
Period: 97.9 minutes
Semi major axis: 7034 km
RCS: 0.0065 m2 (small)
Launch date: December 17, 1971
Source: Commonwealth of Independent States (former USSR) (CIS)
Launch site: PLESETSK MISSILE AND SPACE COMPLEX (PKMTR)

Note: This is SATELLITE DEBRIS
aabbcc
Your satellite tracking list
Your tracking list is empty




NASA's NSSDC Master Catalog

Two Line Element Set (TLE):
1  5778U 71114C   20194.71202685  .00000206  00000-0  38431-4 0  9999
2  5778  74.0131 296.5667 0008556 204.2155 155.8616 14.71555853579297
Source of the keplerian elements: AFSPC